Location: ??????
(36.0418°N, 43.6351°E)
Time: 03:10:07
(UTC+00:00)

RESURS DK-1 - Pass Details

Date: 07 March 2021
Orbit: 554 x 563 km, 69.9° (Epoch: 22 April)

Event Time Altitude Azimuth Distance (km) Brightness Sun altitude
Rises 02:31:11 0° 186° (S) 2,715 5.8 -12.2°
Reaches altitude 10° 02:33:26 10° 179° (S) 1,825 5.0 -11.8°
Maximum altitude 02:37:18 42° 108° (ESE) 797 3.7 -11.0°
Drops below altitude 10° 02:41:10 10° 37° (NE) 1,839 5.6 -10.2°
Sets 02:43:27 0° 31° (NNE) 2,738 6.3 -9.8°
